STARLINK-1879 (47164 NORAD) Tracking and Keplerian Element Data

This shows tracking and keplerian element data for the satellite.

Feedback or suggestion? Click here.




ElementValue
Catalog47164
NameSTARLINK-1879
Epoch Orbit1589
Epoch Day60.91667824
Epoch Year2021
RAAN239.3792
Inclination53.0504
Eccentricity0.0001424
Argument of Perigee57.3362
Mean Anonmoly83.1111
Mean Motion15.46232367
Decay Rate-0.00481167
L11 47164U 20088AU 21060.91667824 -.00481167 00000-0 -10230-1 0 9998
L22 47164 53.0504 239.3792 0001424 57.3362 83.1111 15.46232367 15890

Live tracking and technical data element details for STARLINK-1879 (NORAD 47164). STARLINK-1879 can be tracked NOW for your location showing map with azimuth and elevation plus other details from your city location.

Track the satellite on the map from your city or location and see movement details for azimuth, elevation, latitude, longitude, range, height, and movement on the map or in text.







IsCatalogInMostPopularTable: catalog: 47164, numindb: 34
Update: records affected: 1



GetName: 47164 STARLINK-1879

Hit Count: updated at: Tue, 02 Mar 2021 13:45:57 GMT